Regional Weather Roundup
Issued by NWS Albany, NY

Home | Current Version | Previous Version | Text Only | Print | Product List | Glossary On
Versions: 1 2 3 4 5 6 7 8 9 10 11 12 13 14 15 16 17 18 19 20 21 22 23 24 25 26 27
000
ASUS41 KALY 310810
RWRALY

NEW YORK STATE HOURLY WEATHER ROUNDUP
NATIONAL WEATHER SERVICE ALBANY NY
400 AM EDT TUE MAY 31 2016

NOTE: "FAIR" INDICATES FEW OR NO CLOUDS BELOW 12,000 FEET WITH NO
SIGNIFICANT WEATHER AND/OR NO OBSTRUCTIONS TO VISIBILITY.

NYZ032-033-038>043-046>054-057>066-NYZ062>081-082-084-310900-
EAST


CITY           SKY/WX    TMP DP  RH WIND       PRES   REMARKS
ALBANY         CLOUDY    63  57  81 CALM      29.93S
GLENS FALLS    CLEAR     61  56  83 CALM      29.91R
POUGHKEEPSIE   CLOUDY    68  63  84 CALM      29.92S
NEWBURGH       MOCLDY    66  64  94 W7        29.95R
MONTGOMERY     PTCLDY    64  62  93 SW7       29.94R
WHITE PLAINS   CLOUDY    70  67  90 CALM      29.93S
NEW YORK CITY  CLOUDY    73  67  82 SW5       29.92S
CENTRAL PARK   CLOUDY    72  66  81 SW7       29.95F
$$

NYZ005>009-017-018-044>046-055-056-310900-
CENTRAL


CITY           SKY/WX    TMP DP  RH WIND       PRES   REMARKS
FULTON         MOCLDY    59  53  80 CALM      29.95F
SYRACUSE       MOCLDY    60  53  77 CALM      29.95S
ROME           CLEAR     56  55  97 CALM      29.96S
ELMIRA         PTCLDY    53  51  93 CALM      29.98S
BINGHAMTON     CLEAR     62  51  67 N3        29.99S
MONTICELLO     CLOUDY    57  57 100 CALM      30.00R VSB 1/4
$$

NYZ026>034-041>043-087-310900-
NORTH


CITY           SKY/WX    TMP DP  RH WIND       PRES   REMARKS
WATERTOWN      CLEAR     56  51  84 SW5       29.94R
FORT DRUM      NOT AVBL
MASSENA        CLEAR     59  50  72 SW8       29.89R
SARANAC LAKE   CLEAR     56  47  71 SW8       29.92S
PLATTSBURGH    CLEAR     66  51  58 W6        29.86S
$$

NYZ001>004-010>016-019>021-085-310900-
WEST


CITY           SKY/WX    TMP DP  RH WIND       PRES   REMARKS
NIAGARA FALLS  MOCLDY    61  55  81 CALM      29.97R
BUFFALO        PTCLDY    62  55  77 CALM      29.97R
DUNKIRK        PTCLDY    58  54  86 CALM      29.97S
JAMESTOWN      PTCLDY    57  54  88 S3        30.01S
WELLSVILLE     CLEAR     56  52  86 CALM      30.03F
ROCHESTER      CLEAR     60  56  86 N3        29.97R
PENN YAN       PTCLDY    59  56  89 SW5       29.98F
$$

             KEY
       WCI = WIND CHILL INDEX
       VSB = VISIBILITY
       HX  = HEAT INDEX
$$




USA.gov is the U.S. government's official web portal to all federal, state and local government web resources and services.